Regional Weather Roundup
Issued by NWS Burlington, VT

Home | Current Version | Previous Version | Text Only | Print | Product List | Glossary On
Versions: 1 2 3 4 5 6 7 8 9 10 11 12 13 14 15 16 17 18 19 20 21 22 23 24 25 26 27 28 29 30 31 32 33 34 35 36 37 38 39 40 41 42 43 44 45 46 47 48 49 50
000
ASUS41 KBTV 280430
RWRBTV
VERMONT REGIONAL WEATHER ROUNDUP
NATIONAL WEATHER SERVICE BURLINGTON VT
1200 AM EDT MON JUL 28 2014

NOTE: "FAIR" INDICATES FEW OR NO CLOUDS BELOW 12,000 FEET WITH NO
SIGNIFICANT WEATHER AND/OR OBSTRUCTIONS TO VISIBILITY.

* THESE REPORTS ARE NOT UNDER NWS QUALITY CONTROL AND/OR DO NOT
  REPORT WEATHER SUCH AS PRECIPITATION AND FOG.

VTZ001>019-280500-
_____VERMONT_____


CITY           SKY/WX    TMP DP  RH WIND       PRES   REMARKS
BURLINGTON     PTCLDY    64  62  93 E3        29.66S FOG
MONTPELIER     PTCLDY    61  60  97 CALM      29.72F FOG
MORRISVILLE    MOCLDY    63  61  93 CALM      29.70R
ST. JOHNSBURY*   N/A     62  61  96 MISG      29.66F
LYNDONVILLE*     N/A    N/A N/A N/A MISG        N/A
MIDDLEBURY*    FAIR      64  64 100 CALM      29.66S
RUTLAND*       PTCLDY    64  63  94 SE5       29.68F
SPRINGFIELD    CLOUDY    65  64  97 CALM      29.67F FOG
HIGHGATE*      CLOUDY    65  64  96 CALM      29.66R
NEWPORT*       CLOUDY   N/A N/A N/A S5        29.70R
BENNINGTON     CLOUDY    65  63  93 S3        29.69S FOG
SUTTON*          N/A     59 N/A N/A MISG        N/A
MT. MANSFIELD*   N/A     55 N/A N/A NW10        N/A

_____LAKE CHAMPLAIN_____


CITY           SKY/WX    TMP DP  RH WIND       PRES   REMARKS
COLCHESTER RF*   N/A     68  66  94 SW8         N/A
DIAMOND ISL*     N/A     66  64  94 SE1         N/A

$$

NYZ007-026>031-035-052-083-280500-
_____NORTHERN NEW YORK_____


CITY           SKY/WX    TMP DP  RH WIND       PRES   REMARKS
PLATTSBURGH    PTCLDY    63  63 100 CALM      29.65S
SARANAC LAKE   PTCLDY    55  54  96 CALM      29.69F FOG
MASSENA        MOCLDY    62  62 100 S3        29.67R
OGDENSBURG*    CLEAR     63  61  94 CALM      29.68R FOG
POTSDAM*       MOCLDY    63  63 100 CALM      29.68R
WATERTOWN      CLOUDY    65  59  81 E3        29.65R
FT DRUM        CLOUDY    65  64  93 SE1       29.66R
ALBANY         CLOUDY    70  67  90 CALM      29.66F
GLENS FALLS    MOCLDY    66  64  93 CALM      29.65F

$$
NHZ002-005-011-280500-
_____NEW HAMPSHIRE_____


CITY           SKY/WX    TMP DP  RH WIND       PRES   REMARKS
LEBANON        FOG       64  63  96 CALM      29.66F VSB 1/4
KEENE          PTCLDY    66  57  72 CALM      29.68F
MT WASHINGTON  LGT RAIN  50  50 100 W30         N/A  VSB 0
PLYMOUTH       FOG       66  65  96 CALM      29.67S VSB 1
WHITEFIELD     LGT RAIN  62  60  93 W3        29.70S

$$

_____REGIONAL QUEBEC LOCATIONS_____


CITY           SKY/WX    TMP DP  RH WIND       PRES   REMARKS
MONTREAL       PTCLDY    66  63  88 NE8       29.64R
QUEBEC CITY    CLOUDY    61  61 100 W3        29.63S
SHERBROOKE     MOCLDY    61  61 100 CALM      29.65S

_____REGIONAL ONTARIO LOCATIONS_____


CITY           SKY/WX    TMP DP  RH WIND       PRES   REMARKS
OTTAWA         PTCLDY    64  61  88 N10G18    29.67R

______KEY______
VSB  - VISIBILITY IN MILES
WCI  - WIND CHILL INDEX
HX   - HEAT INDEX
$$



USA.gov is the U.S. government's official web portal to all federal, state and local government web resources and services.